Year,Month,Day,Hour,Minute,Value (Times are PST for temperature in C)
2013,07,16,00,00,14.60
2013,07,16,00,01,14.60
2013,07,16,00,02,14.60
2013,07,16,00,03,14.60
2013,07,16,00,04,14.60
2013,07,16,00,05,14.50
2013,07,16,00,06,14.50
2013,07,16,00,07,14.50
2013,07,16,00,08,14.50
2013,07,16,00,09,14.50
2013,07,16,00,10,14.50
2013,07,16,00,11,14.50
2013,07,16,00,12,14.50
2013,07,16,00,13,14.50
2013,07,16,00,14,14.40
2013,07,16,00,15,14.40
2013,07,16,00,16,14.40
2013,07,16,00,17,14.40
2013,07,16,00,18,14.40
2013,07,16,00,19,14.40
2013,07,16,00,20,14.40
2013,07,16,00,21,14.30
2013,07,16,00,22,14.30
2013,07,16,00,23,14.30
2013,07,16,00,24,14.30
2013,07,16,00,25,14.30
2013,07,16,00,26,14.30
2013,07,16,00,27,14.30
2013,07,16,00,28,14.30
2013,07,16,00,29,14.20
2013,07,16,00,30,14.20
2013,07,16,00,31,14.20
2013,07,16,00,32,14.20
2013,07,16,00,33,14.20
2013,07,16,00,34,14.20
2013,07,16,00,35,14.20
2013,07,16,00,36,14.20
2013,07,16,00,37,14.20
2013,07,16,00,38,14.20
2013,07,16,00,39,14.20
2013,07,16,00,40,14.20
2013,07,16,00,41,14.20
2013,07,16,00,42,14.20
2013,07,16,00,43,14.20
2013,07,16,00,44,14.20
2013,07,16,00,45,14.20
2013,07,16,00,46,14.10
2013,07,16,00,47,14.10
2013,07,16,00,48,14.10
2013,07,16,00,49,14.10
2013,07,16,00,50,14.00
2013,07,16,00,51,14.00
2013,07,16,00,52,14.00
2013,07,16,00,53,14.00
2013,07,16,00,54,14.00
2013,07,16,00,55,14.00
2013,07,16,00,56,13.90
2013,07,16,00,57,13.90
2013,07,16,00,58,13.90
2013,07,16,00,59,13.90
2013,07,16,01,00,13.90
2013,07,16,01,01,13.90
2013,07,16,01,02,13.90
2013,07,16,01,03,13.90
2013,07,16,01,04,13.90
2013,07,16,01,05,13.80
2013,07,16,01,06,13.80
2013,07,16,01,07,13.70
2013,07,16,01,08,13.70
2013,07,16,01,09,13.70
2013,07,16,01,10,13.70
2013,07,16,01,11,13.70
2013,07,16,01,12,13.70
2013,07,16,01,13,13.70
2013,07,16,01,14,13.60
2013,07,16,01,15,13.60
2013,07,16,01,16,13.60
2013,07,16,01,17,13.60
2013,07,16,01,18,13.60
2013,07,16,01,19,13.50
2013,07,16,01,20,13.50
2013,07,16,01,21,13.50
2013,07,16,01,22,13.50
2013,07,16,01,23,13.50
2013,07,16,01,24,13.50
2013,07,16,01,25,13.50
2013,07,16,01,26,13.50
2013,07,16,01,27,13.50
2013,07,16,01,28,13.50
2013,07,16,01,29,13.50
2013,07,16,01,30,13.50
2013,07,16,01,31,13.50
2013,07,16,01,32,13.50
2013,07,16,01,33,13.50
2013,07,16,01,34,13.60
2013,07,16,01,35,13.60
2013,07,16,01,36,13.60
2013,07,16,01,37,13.60
2013,07,16,01,38,13.60
2013,07,16,01,39,13.60
2013,07,16,01,40,13.60
2013,07,16,01,41,13.70
2013,07,16,01,42,13.70
2013,07,16,01,43,13.70
2013,07,16,01,44,13.70
2013,07,16,01,45,13.70
2013,07,16,01,46,13.70
2013,07,16,01,47,13.70
2013,07,16,01,48,13.70
2013,07,16,01,49,13.70
2013,07,16,01,50,13.80
2013,07,16,01,51,13.80
2013,07,16,01,52,13.80
2013,07,16,01,53,13.80
2013,07,16,01,54,13.90
2013,07,16,01,55,13.90
2013,07,16,01,56,13.90
2013,07,16,01,57,13.90
2013,07,16,01,58,14.00
2013,07,16,01,59,14.00
2013,07,16,02,00,14.00
2013,07,16,02,01,14.00
2013,07,16,02,02,14.10
2013,07,16,02,03,14.10
2013,07,16,02,04,14.10
2013,07,16,02,05,14.20
2013,07,16,02,06,14.20
2013,07,16,02,07,14.20
2013,07,16,02,08,14.20
2013,07,16,02,09,14.20
2013,07,16,02,10,14.20
2013,07,16,02,11,14.20
2013,07,16,02,12,14.30
2013,07,16,02,13,14.30
2013,07,16,02,14,14.30
2013,07,16,02,15,14.30
2013,07,16,02,16,14.30
2013,07,16,02,17,14.40
2013,07,16,02,18,14.40
2013,07,16,02,19,14.40
2013,07,16,02,20,14.40
2013,07,16,02,21,14.40
2013,07,16,02,22,14.40
2013,07,16,02,23,14.40
2013,07,16,02,24,14.40
2013,07,16,02,25,14.40
2013,07,16,02,26,14.50
2013,07,16,02,27,14.50
2013,07,16,02,28,14.50
2013,07,16,02,29,14.50
2013,07,16,02,30,14.50
2013,07,16,02,31,14.50
2013,07,16,02,32,14.50
2013,07,16,02,33,14.60
2013,07,16,02,34,14.60
2013,07,16,02,35,14.60
2013,07,16,02,36,14.60
2013,07,16,02,37,14.60
2013,07,16,02,38,14.60
2013,07,16,02,39,14.60
2013,07,16,02,40,14.60
2013,07,16,02,41,14.60
2013,07,16,02,42,14.60
2013,07,16,02,43,14.60
2013,07,16,02,44,14.60
2013,07,16,02,45,14.60
2013,07,16,02,46,14.60
2013,07,16,02,47,14.60
2013,07,16,02,48,14.60
2013,07,16,02,49,14.60
2013,07,16,02,50,14.60
2013,07,16,02,51,14.60
2013,07,16,02,52,14.60
2013,07,16,02,53,14.60
2013,07,16,02,54,14.70
2013,07,16,02,55,14.70
2013,07,16,02,56,14.70
2013,07,16,02,57,14.70
2013,07,16,02,58,14.70
2013,07,16,02,59,14.80
2013,07,16,03,00,14.80
2013,07,16,03,01,14.80
2013,07,16,03,02,14.80
2013,07,16,03,03,14.80
2013,07,16,03,04,14.80
2013,07,16,03,05,14.80
2013,07,16,03,06,14.80
2013,07,16,03,07,14.80
2013,07,16,03,08,14.80
2013,07,16,03,09,14.80
2013,07,16,03,10,14.80
2013,07,16,03,11,14.80
2013,07,16,03,12,14.80
2013,07,16,03,13,14.80
2013,07,16,03,14,14.80
2013,07,16,03,15,14.80
2013,07,16,03,16,14.80
2013,07,16,03,17,14.80
2013,07,16,03,18,14.80
2013,07,16,03,19,14.80
2013,07,16,03,20,14.80
2013,07,16,03,21,14.80
2013,07,16,03,22,14.80
2013,07,16,03,23,14.80
2013,07,16,03,24,14.80
2013,07,16,03,25,14.80
2013,07,16,03,26,14.80
2013,07,16,03,27,14.80
2013,07,16,03,28,14.80
2013,07,16,03,29,14.80
2013,07,16,03,30,14.80
2013,07,16,03,31,14.80
2013,07,16,03,32,14.80
2013,07,16,03,33,14.80
2013,07,16,03,34,14.80
2013,07,16,03,35,14.80
2013,07,16,03,36,14.80
2013,07,16,03,37,14.80
2013,07,16,03,38,14.80
2013,07,16,03,39,14.80
2013,07,16,03,40,14.80
2013,07,16,03,41,14.80
2013,07,16,03,42,14.80
2013,07,16,03,43,14.80
2013,07,16,03,44,14.80
2013,07,16,03,45,14.80
2013,07,16,03,46,14.80
2013,07,16,03,47,14.80
2013,07,16,03,48,14.80
2013,07,16,03,49,14.80
2013,07,16,03,50,14.80
2013,07,16,03,51,14.80
2013,07,16,03,52,14.80
2013,07,16,03,53,14.80
2013,07,16,03,54,14.80
2013,07,16,03,55,14.80
2013,07,16,03,56,14.80
2013,07,16,03,57,14.80
2013,07,16,03,58,14.80
2013,07,16,03,59,14.80
2013,07,16,04,00,14.80
2013,07,16,04,01,14.80
2013,07,16,04,02,14.80
2013,07,16,04,03,14.80
2013,07,16,04,04,14.80
2013,07,16,04,05,14.80
2013,07,16,04,06,14.80
2013,07,16,04,07,14.80
2013,07,16,04,08,14.80
2013,07,16,04,09,14.80
2013,07,16,04,10,14.80
2013,07,16,04,11,14.80
2013,07,16,04,12,14.80
2013,07,16,04,13,14.80
2013,07,16,04,14,14.80
2013,07,16,04,15,14.80
2013,07,16,04,16,14.80
2013,07,16,04,17,14.80
2013,07,16,04,18,14.80
2013,07,16,04,19,14.80
2013,07,16,04,20,14.80
2013,07,16,04,21,14.70
2013,07,16,04,22,14.70
2013,07,16,04,23,14.70
2013,07,16,04,24,14.70
2013,07,16,04,25,14.70
2013,07,16,04,26,14.70
2013,07,16,04,27,14.70
2013,07,16,04,28,14.70
2013,07,16,04,29,14.60
2013,07,16,04,30,14.60
2013,07,16,04,31,14.60
2013,07,16,04,32,14.60
2013,07,16,04,33,14.60
2013,07,16,04,34,14.60
2013,07,16,04,35,14.60
2013,07,16,04,36,14.60
2013,07,16,04,37,14.60
2013,07,16,04,38,14.60
2013,07,16,04,39,14.60
2013,07,16,04,40,14.60
2013,07,16,04,41,14.60
2013,07,16,04,42,14.60
2013,07,16,04,43,14.60
2013,07,16,04,44,14.60
2013,07,16,04,45,14.60
2013,07,16,04,46,14.50
2013,07,16,04,47,14.50
2013,07,16,04,48,14.50
2013,07,16,04,49,14.50
2013,07,16,04,50,14.50
2013,07,16,04,51,14.50
2013,07,16,04,52,14.50
2013,07,16,04,53,14.50
2013,07,16,04,54,14.50
2013,07,16,04,55,14.50
2013,07,16,04,56,14.50
2013,07,16,04,57,14.50
2013,07,16,04,58,14.50
2013,07,16,04,59,14.50
2013,07,16,05,00,14.50
2013,07,16,05,01,14.50
2013,07,16,05,02,14.50
2013,07,16,05,03,14.50
2013,07,16,05,04,14.50
2013,07,16,05,05,14.50
2013,07,16,05,06,14.50
2013,07,16,05,07,14.50
2013,07,16,05,08,14.50
2013,07,16,05,09,14.50
2013,07,16,05,10,14.50
2013,07,16,05,11,14.50
2013,07,16,05,12,14.50
2013,07,16,05,13,14.50
2013,07,16,05,14,14.50
2013,07,16,05,15,14.40
2013,07,16,05,16,14.40
2013,07,16,05,17,14.40
2013,07,16,05,18,14.40
2013,07,16,05,19,14.40
2013,07,16,05,20,14.40
2013,07,16,05,21,14.40
2013,07,16,05,22,14.40
2013,07,16,05,23,14.40
2013,07,16,05,24,14.40
2013,07,16,05,25,14.40
2013,07,16,05,26,14.40
2013,07,16,05,27,14.40
2013,07,16,05,28,14.40
2013,07,16,05,29,14.40
2013,07,16,05,30,14.40
2013,07,16,05,31,14.40
2013,07,16,05,32,14.40
2013,07,16,05,33,14.40
2013,07,16,05,34,14.40
2013,07,16,05,35,14.40
2013,07,16,05,36,14.40
2013,07,16,05,37,14.40
2013,07,16,05,38,14.40
2013,07,16,05,39,14.40
2013,07,16,05,40,14.40
2013,07,16,05,41,14.40
2013,07,16,05,42,14.40
2013,07,16,05,43,14.40
2013,07,16,05,44,14.40
2013,07,16,05,45,14.40
2013,07,16,05,46,14.40
2013,07,16,05,47,14.40
2013,07,16,05,48,14.40
2013,07,16,05,49,14.40
2013,07,16,05,50,14.40
2013,07,16,05,51,14.40
2013,07,16,05,52,14.40
2013,07,16,05,53,14.40
2013,07,16,05,54,14.40
2013,07,16,05,55,14.40
2013,07,16,05,56,14.40
2013,07,16,05,57,14.40
2013,07,16,05,58,14.40
2013,07,16,05,59,14.40
2013,07,16,06,00,14.40
2013,07,16,06,01,14.40
2013,07,16,06,02,14.40
2013,07,16,06,03,14.40
2013,07,16,06,04,14.40
2013,07,16,06,05,14.40
2013,07,16,06,06,14.40
2013,07,16,06,07,14.40
2013,07,16,06,08,14.40
2013,07,16,06,09,14.40
2013,07,16,06,10,14.40
2013,07,16,06,11,14.40
2013,07,16,06,12,14.40
2013,07,16,06,13,14.40
2013,07,16,06,14,14.40
2013,07,16,06,15,14.40
2013,07,16,06,16,14.50
2013,07,16,06,17,14.50
2013,07,16,06,18,14.50
2013,07,16,06,19,14.50
2013,07,16,06,20,14.50
2013,07,16,06,21,14.50
2013,07,16,06,22,14.60
2013,07,16,06,23,14.60
2013,07,16,06,24,14.60
2013,07,16,06,25,14.70
2013,07,16,06,26,14.70
2013,07,16,06,27,14.70
2013,07,16,06,28,14.70
2013,07,16,06,29,14.80
2013,07,16,06,30,14.80
2013,07,16,06,31,14.80
2013,07,16,06,32,14.80
2013,07,16,06,33,14.80
2013,07,16,06,34,14.80
2013,07,16,06,35,14.80
2013,07,16,06,36,14.90
2013,07,16,06,37,14.90
2013,07,16,06,38,14.90
2013,07,16,06,39,15.00
2013,07,16,06,40,15.00
2013,07,16,06,41,15.00
2013,07,16,06,42,15.00
2013,07,16,06,43,15.10
2013,07,16,06,44,15.10
2013,07,16,06,45,15.10
2013,07,16,06,46,15.10
2013,07,16,06,47,15.20
2013,07,16,06,48,15.20
2013,07,16,06,49,15.20
2013,07,16,06,50,15.30
2013,07,16,06,51,15.30
2013,07,16,06,52,15.30
2013,07,16,06,53,15.30
2013,07,16,06,54,15.40
2013,07,16,06,55,15.40
2013,07,16,06,56,15.40
2013,07,16,06,57,15.50
2013,07,16,06,58,15.50
2013,07,16,06,59,15.60
2013,07,16,07,00,15.60
2013,07,16,07,01,15.60
2013,07,16,07,02,15.60
2013,07,16,07,03,15.70
2013,07,16,07,04,15.70
2013,07,16,07,05,15.70
2013,07,16,07,06,15.70
2013,07,16,07,07,15.70
2013,07,16,07,08,15.70
2013,07,16,07,09,15.80
2013,07,16,07,10,15.80
2013,07,16,07,11,15.80
2013,07,16,07,12,15.80
2013,07,16,07,13,15.80
2013,07,16,07,14,15.80
2013,07,16,07,15,15.90
2013,07,16,07,16,15.90
2013,07,16,07,17,15.90
2013,07,16,07,18,16.00
2013,07,16,07,19,16.10
2013,07,16,07,20,16.10
2013,07,16,07,21,16.10
2013,07,16,07,22,16.10
2013,07,16,07,23,16.10
2013,07,16,07,24,16.20
2013,07,16,07,25,16.20
2013,07,16,07,26,16.20
2013,07,16,07,27,16.20
2013,07,16,07,28,16.30
2013,07,16,07,29,16.30
2013,07,16,07,30,16.40
2013,07,16,07,31,16.50
2013,07,16,07,32,16.60
2013,07,16,07,33,16.70
2013,07,16,07,34,16.80
2013,07,16,07,35,16.90
2013,07,16,07,36,17.00
2013,07,16,07,37,17.00
2013,07,16,07,38,17.10
2013,07,16,07,39,17.20
2013,07,16,07,40,17.30
2013,07,16,07,41,17.30
2013,07,16,07,42,17.40
2013,07,16,07,43,17.50
2013,07,16,07,44,17.50
2013,07,16,07,45,17.70
2013,07,16,07,46,17.80
2013,07,16,07,47,17.80
2013,07,16,07,48,17.90
2013,07,16,07,49,17.90
2013,07,16,07,50,18.10
2013,07,16,07,51,18.20
2013,07,16,07,52,18.30
2013,07,16,07,53,18.40
2013,07,16,07,54,18.40
2013,07,16,07,55,18.50
2013,07,16,07,56,18.60
2013,07,16,07,57,18.70
2013,07,16,07,58,18.90
2013,07,16,07,59,19.10
2013,07,16,08,00,19.30
2013,07,16,08,01,19.40
2013,07,16,08,02,19.50
2013,07,16,08,03,19.70
2013,07,16,08,04,19.90
2013,07,16,08,05,20.00
2013,07,16,08,06,20.20
2013,07,16,08,07,20.40
2013,07,16,08,08,20.60
2013,07,16,08,09,20.70
2013,07,16,08,10,20.90
2013,07,16,08,11,21.00
2013,07,16,08,12,21.20
2013,07,16,08,13,21.30
2013,07,16,08,14,21.50
2013,07,16,08,15,21.60
2013,07,16,08,16,21.70
2013,07,16,08,17,21.80
2013,07,16,08,18,21.90
2013,07,16,08,19,22.00
2013,07,16,08,20,22.20
2013,07,16,08,21,22.20
2013,07,16,08,22,22.30
2013,07,16,08,23,22.40
2013,07,16,08,24,22.40
2013,07,16,08,25,22.50
2013,07,16,08,26,22.60
2013,07,16,08,27,22.60
2013,07,16,08,28,22.60
2013,07,16,08,29,22.70
2013,07,16,08,30,22.70
2013,07,16,08,31,22.70
2013,07,16,08,32,22.80
2013,07,16,08,33,22.80
2013,07,16,08,34,22.80
2013,07,16,08,35,22.80
2013,07,16,08,36,22.90
2013,07,16,08,37,22.90
2013,07,16,08,38,22.90
2013,07,16,08,39,22.90
2013,07,16,08,40,23.10
2013,07,16,08,41,23.10
2013,07,16,08,42,23.10
2013,07,16,08,43,23.10
2013,07,16,08,44,23.10
2013,07,16,08,45,23.10
2013,07,16,08,46,23.10
2013,07,16,08,47,23.20
2013,07,16,08,48,23.20
2013,07,16,08,49,23.20
2013,07,16,08,50,23.20
2013,07,16,08,51,23.30
2013,07,16,08,52,23.30
2013,07,16,08,53,23.30
2013,07,16,08,54,23.30
2013,07,16,08,55,23.30
2013,07,16,08,56,23.30
2013,07,16,08,57,23.30
2013,07,16,08,58,23.30
2013,07,16,08,59,23.40
2013,07,16,09,00,23.40
2013,07,16,09,01,23.50
2013,07,16,09,02,23.60
2013,07,16,09,03,23.60
2013,07,16,09,04,23.60
2013,07,16,09,05,23.60
2013,07,16,09,06,23.60
2013,07,16,09,07,23.60
2013,07,16,09,08,23.60
2013,07,16,09,09,23.60
2013,07,16,09,10,23.70
2013,07,16,09,11,23.70
2013,07,16,09,12,23.70
2013,07,16,09,13,23.70
2013,07,16,09,14,23.70
2013,07,16,09,15,23.70
2013,07,16,09,16,23.70
2013,07,16,09,17,23.70
2013,07,16,09,18,23.70
2013,07,16,09,19,23.70
2013,07,16,09,20,23.70
2013,07,16,09,21,23.70
2013,07,16,09,22,23.70
2013,07,16,09,23,23.70
2013,07,16,09,24,23.70
2013,07,16,09,25,23.70
2013,07,16,09,26,23.80
2013,07,16,09,27,23.80
2013,07,16,09,28,23.80
2013,07,16,09,29,23.80
2013,07,16,09,30,23.80
2013,07,16,09,31,23.80
2013,07,16,09,32,23.80
2013,07,16,09,33,23.80
2013,07,16,09,34,23.90
2013,07,16,09,35,23.90
2013,07,16,09,36,23.90
2013,07,16,09,37,23.90
2013,07,16,09,38,23.90
2013,07,16,09,39,23.90
2013,07,16,09,40,23.90
2013,07,16,09,41,23.90
2013,07,16,09,42,24.00
2013,07,16,09,43,24.10
2013,07,16,09,44,24.10
2013,07,16,09,45,24.10
2013,07,16,09,46,24.10
2013,07,16,09,47,24.10
2013,07,16,09,48,24.10
2013,07,16,09,49,24.10
2013,07,16,09,50,24.10
2013,07,16,09,51,24.10
2013,07,16,09,52,24.10
2013,07,16,09,53,24.10
2013,07,16,09,54,24.10
2013,07,16,09,55,24.10
2013,07,16,09,56,24.10
2013,07,16,09,57,24.10
2013,07,16,09,58,24.10
2013,07,16,09,59,24.10
2013,07,16,10,00,24.10
2013,07,16,10,01,24.10
2013,07,16,10,02,24.20
2013,07,16,10,03,24.20
2013,07,16,10,04,24.20
2013,07,16,10,05,24.20
2013,07,16,10,06,24.20
2013,07,16,10,07,24.20
2013,07,16,10,08,24.20
2013,07,16,10,09,24.30
2013,07,16,10,10,24.30
2013,07,16,10,11,24.30
2013,07,16,10,12,24.30
2013,07,16,10,13,24.30
2013,07,16,10,14,24.40
2013,07,16,10,15,24.40
2013,07,16,10,16,24.40
2013,07,16,10,17,24.40
2013,07,16,10,18,24.40
2013,07,16,10,19,24.40
2013,07,16,10,20,24.40
2013,07,16,10,21,24.50
2013,07,16,10,22,24.50
2013,07,16,10,23,24.50
2013,07,16,10,24,24.60
2013,07,16,10,25,24.60
2013,07,16,10,26,24.60
2013,07,16,10,27,24.70
2013,07,16,10,28,24.70
2013,07,16,10,29,24.70
2013,07,16,10,30,24.80
2013,07,16,10,31,24.80
2013,07,16,10,32,24.80
2013,07,16,10,33,24.80
2013,07,16,10,34,24.80
2013,07,16,10,35,24.90
2013,07,16,10,36,24.90
2013,07,16,10,37,24.90
2013,07,16,10,38,24.90
2013,07,16,10,39,24.90
2013,07,16,10,40,24.90
2013,07,16,10,41,25.00
2013,07,16,10,42,25.00
2013,07,16,10,43,25.00
2013,07,16,10,44,25.00
2013,07,16,10,45,25.10
2013,07,16,10,46,25.10
2013,07,16,10,47,25.10
2013,07,16,10,48,25.10
2013,07,16,10,49,25.20
2013,07,16,10,50,25.20
2013,07,16,10,51,25.20
2013,07,16,10,52,25.30
2013,07,16,10,53,25.30
2013,07,16,10,54,25.30
2013,07,16,10,55,25.40
2013,07,16,10,56,25.40
2013,07,16,10,57,25.50
2013,07,16,10,58,25.50
2013,07,16,10,59,25.50
2013,07,16,11,00,25.50
2013,07,16,11,01,25.50
2013,07,16,11,02,25.50
2013,07,16,11,03,25.60
2013,07,16,11,04,25.60
2013,07,16,11,05,25.60
2013,07,16,11,06,25.60
2013,07,16,11,07,25.60
2013,07,16,11,08,25.60
2013,07,16,11,09,25.60
2013,07,16,11,10,25.60
2013,07,16,11,11,25.60
2013,07,16,11,12,25.60
2013,07,16,11,13,25.60
2013,07,16,11,14,25.60
2013,07,16,11,15,25.60
2013,07,16,11,16,25.70
2013,07,16,11,17,25.70
2013,07,16,11,18,25.70
2013,07,16,11,19,25.70
2013,07,16,11,20,25.80
2013,07,16,11,21,25.80
2013,07,16,11,22,25.90
2013,07,16,11,23,25.90
2013,07,16,11,24,25.90
2013,07,16,11,25,25.90
2013,07,16,11,26,25.90
2013,07,16,11,27,25.90
2013,07,16,11,28,25.90
2013,07,16,11,29,26.00
2013,07,16,11,30,26.00
2013,07,16,11,31,26.00
2013,07,16,11,32,26.10
2013,07,16,11,33,26.10
2013,07,16,11,34,26.20
2013,07,16,11,35,26.20
2013,07,16,11,36,26.20
2013,07,16,11,37,26.20
2013,07,16,11,38,26.20
2013,07,16,11,39,26.30
2013,07,16,11,40,26.30
2013,07,16,11,41,26.30
2013,07,16,11,42,26.30
2013,07,16,11,43,26.30
2013,07,16,11,44,26.30
2013,07,16,11,45,26.30
2013,07,16,11,46,26.30
2013,07,16,11,47,26.30
2013,07,16,11,48,26.30
2013,07,16,11,49,26.40
2013,07,16,11,50,26.40
2013,07,16,11,51,26.40
2013,07,16,11,52,26.40
2013,07,16,11,53,26.40
2013,07,16,11,54,26.40
2013,07,16,11,55,26.40
2013,07,16,11,56,26.50
2013,07,16,11,57,26.60
2013,07,16,11,58,26.60
2013,07,16,11,59,26.60
2013,07,16,12,00,26.60
2013,07,16,12,01,26.60
2013,07,16,12,02,26.60
2013,07,16,12,03,26.60
2013,07,16,12,04,26.60
2013,07,16,12,05,26.60
2013,07,16,12,06,26.70
2013,07,16,12,07,26.70
2013,07,16,12,08,26.80
2013,07,16,12,09,26.80
2013,07,16,12,10,26.80
2013,07,16,12,11,26.90
2013,07,16,12,12,26.90
2013,07,16,12,13,26.90
2013,07,16,12,14,26.90
2013,07,16,12,15,26.90
2013,07,16,12,16,26.90
2013,07,16,12,17,27.00
2013,07,16,12,18,27.10
2013,07,16,12,19,27.20
2013,07,16,12,20,27.20
2013,07,16,12,21,27.20
2013,07,16,12,22,27.20
2013,07,16,12,23,27.20
2013,07,16,12,24,27.20
2013,07,16,12,25,27.20
2013,07,16,12,26,27.10
2013,07,16,12,27,27.10
2013,07,16,12,28,27.20
2013,07,16,12,29,27.20
2013,07,16,12,30,27.20
2013,07,16,12,31,27.30
2013,07,16,12,32,27.30
2013,07,16,12,33,27.30
2013,07,16,12,34,27.30
2013,07,16,12,35,27.40
2013,07,16,12,36,27.50
2013,07,16,12,37,27.60
2013,07,16,12,38,27.70
2013,07,16,12,39,27.70
2013,07,16,12,40,27.80
2013,07,16,12,41,27.90
2013,07,16,12,42,28.00
2013,07,16,12,43,28.00
2013,07,16,12,44,28.10
2013,07,16,12,45,28.10
2013,07,16,12,46,28.20
2013,07,16,12,47,28.20
2013,07,16,12,48,28.30
2013,07,16,12,49,28.30
2013,07,16,12,50,28.30
2013,07,16,12,51,28.20
2013,07,16,12,52,28.30
2013,07,16,12,53,28.30
2013,07,16,12,54,28.30
2013,07,16,12,55,28.30
2013,07,16,12,56,28.30
2013,07,16,12,57,28.30
2013,07,16,12,58,28.30
2013,07,16,12,59,28.20
2013,07,16,13,00,28.20
2013,07,16,13,01,28.20
2013,07,16,13,02,28.30
2013,07,16,13,03,28.30
2013,07,16,13,04,28.30
2013,07,16,13,05,28.30
2013,07,16,13,06,28.30
2013,07,16,13,07,28.20
2013,07,16,13,08,28.20
2013,07,16,13,09,28.20
2013,07,16,13,10,28.10
2013,07,16,13,11,28.10
2013,07,16,13,12,28.00
2013,07,16,13,13,28.00
2013,07,16,13,14,27.90
2013,07,16,13,15,27.80
2013,07,16,13,16,27.80
2013,07,16,13,17,27.70
2013,07,16,13,18,27.70
2013,07,16,13,19,27.70
2013,07,16,13,20,27.70
2013,07,16,13,21,27.70
2013,07,16,13,22,27.70
2013,07,16,13,23,27.70
2013,07,16,13,24,27.60
2013,07,16,13,25,27.60
2013,07,16,13,26,27.60
2013,07,16,13,27,27.60
2013,07,16,13,28,27.70
2013,07,16,13,29,27.70
2013,07,16,13,30,27.70
2013,07,16,13,31,27.70
2013,07,16,13,32,27.70
2013,07,16,13,33,27.70
2013,07,16,13,34,27.80
2013,07,16,13,35,27.80
2013,07,16,13,36,27.80
2013,07,16,13,37,27.70
2013,07,16,13,38,27.80
2013,07,16,13,39,27.80
2013,07,16,13,40,27.80
2013,07,16,13,41,27.80
2013,07,16,13,42,27.90
2013,07,16,13,43,27.90
2013,07,16,13,44,27.90
2013,07,16,13,45,27.90
2013,07,16,13,46,27.90
2013,07,16,13,47,27.90
2013,07,16,13,48,27.90
2013,07,16,13,49,27.90
2013,07,16,13,50,27.80
2013,07,16,13,51,27.80
2013,07,16,13,52,27.70
2013,07,16,13,53,27.70
2013,07,16,13,54,27.70
2013,07,16,13,55,27.70
2013,07,16,13,56,27.60
2013,07,16,13,57,27.60
2013,07,16,13,58,27.60
2013,07,16,13,59,27.60
2013,07,16,14,00,27.60
2013,07,16,14,01,27.60
2013,07,16,14,02,27.60
2013,07,16,14,03,27.60
2013,07,16,14,04,27.60
2013,07,16,14,05,27.60
2013,07,16,14,06,27.60
2013,07,16,14,07,27.60
2013,07,16,14,08,27.60
2013,07,16,14,09,27.60
2013,07,16,14,10,27.60
2013,07,16,14,11,27.60
2013,07,16,14,12,27.60
2013,07,16,14,13,27.60
2013,07,16,14,14,27.60
2013,07,16,14,15,27.60
2013,07,16,14,16,27.60
2013,07,16,14,17,27.70
2013,07,16,14,18,27.70
2013,07,16,14,19,27.70
2013,07,16,14,20,27.70
2013,07,16,14,21,27.70
2013,07,16,14,22,27.70
2013,07,16,14,23,27.70
2013,07,16,14,24,27.70
2013,07,16,14,25,27.70
2013,07,16,14,26,27.70
2013,07,16,14,27,27.70
2013,07,16,14,28,27.70
2013,07,16,14,29,27.70
2013,07,16,14,30,27.70
2013,07,16,14,31,27.70
2013,07,16,14,32,27.80
2013,07,16,14,33,27.80
2013,07,16,14,34,27.80
2013,07,16,14,35,27.80
2013,07,16,14,36,27.80
2013,07,16,14,37,27.80
2013,07,16,14,38,27.80
2013,07,16,14,39,27.80
2013,07,16,14,40,27.70
2013,07,16,14,41,27.70
2013,07,16,14,42,27.70
2013,07,16,14,43,27.70
2013,07,16,14,44,27.70
2013,07,16,14,45,27.70
2013,07,16,14,46,27.70
2013,07,16,14,47,27.60
2013,07,16,14,48,27.60
2013,07,16,14,49,27.60
2013,07,16,14,50,27.60
2013,07,16,14,51,27.50
2013,07,16,14,52,27.40
2013,07,16,14,53,27.40
2013,07,16,14,54,27.40
2013,07,16,14,55,27.40
2013,07,16,14,56,27.40
2013,07,16,14,57,27.40
2013,07,16,14,58,27.40
2013,07,16,14,59,27.40
2013,07,16,15,00,27.40
2013,07,16,15,01,27.40
2013,07,16,15,02,27.40
2013,07,16,15,03,27.40
2013,07,16,15,04,27.40
2013,07,16,15,05,27.40
2013,07,16,15,06,27.30
2013,07,16,15,07,27.30
2013,07,16,15,08,27.30
2013,07,16,15,09,27.30
2013,07,16,15,10,27.30
2013,07,16,15,11,27.30
2013,07,16,15,12,27.30
2013,07,16,15,13,27.30
2013,07,16,15,14,27.30
2013,07,16,15,15,27.30
2013,07,16,15,16,27.30
2013,07,16,15,17,27.30
2013,07,16,15,18,27.30
2013,07,16,15,19,27.30
2013,07,16,15,20,27.40
2013,07,16,15,21,27.40
2013,07,16,15,22,27.50
2013,07,16,15,23,27.60
2013,07,16,15,24,27.60
2013,07,16,15,25,27.70
2013,07,16,15,26,27.70
2013,07,16,15,27,27.80
2013,07,16,15,28,27.80
2013,07,16,15,29,27.80
2013,07,16,15,30,27.90
2013,07,16,15,31,27.90
2013,07,16,15,32,27.90
2013,07,16,15,33,28.00
2013,07,16,15,34,28.00
2013,07,16,15,35,28.00
2013,07,16,15,36,28.10
2013,07,16,15,37,28.10
2013,07,16,15,38,28.20
2013,07,16,15,39,28.20
2013,07,16,15,40,28.30
2013,07,16,15,41,28.40
2013,07,16,15,42,28.40
2013,07,16,15,43,28.50
2013,07,16,15,44,28.60
2013,07,16,15,45,28.60
2013,07,16,15,46,28.70
2013,07,16,15,47,28.80
2013,07,16,15,48,28.90
2013,07,16,15,49,28.90
2013,07,16,15,50,29.00
2013,07,16,15,51,29.20
2013,07,16,15,52,29.30
2013,07,16,15,53,29.40
2013,07,16,15,54,29.50
2013,07,16,15,55,29.50
2013,07,16,15,56,29.50
2013,07,16,15,57,29.50
2013,07,16,15,58,29.50
2013,07,16,15,59,29.60
2013,07,16,16,00,29.60
2013,07,16,16,01,29.60
2013,07,16,16,02,29.60
2013,07,16,16,03,29.50
2013,07,16,16,04,29.50
2013,07,16,16,05,29.40
2013,07,16,16,06,29.40
2013,07,16,16,07,29.30
2013,07,16,16,08,29.30
2013,07,16,16,09,29.20
2013,07,16,16,10,29.20
2013,07,16,16,11,29.10
2013,07,16,16,12,29.10
2013,07,16,16,13,29.10
2013,07,16,16,14,28.90
2013,07,16,16,15,28.90
2013,07,16,16,16,28.90
2013,07,16,16,17,28.90
2013,07,16,16,18,28.80
2013,07,16,16,19,28.80
2013,07,16,16,20,28.70
2013,07,16,16,21,28.70
2013,07,16,16,22,28.60
2013,07,16,16,23,28.60
2013,07,16,16,24,28.60
2013,07,16,16,25,28.40
2013,07,16,16,26,28.40
2013,07,16,16,27,28.40
2013,07,16,16,28,28.30
2013,07,16,16,29,28.30
2013,07,16,16,30,28.30
2013,07,16,16,31,28.20
2013,07,16,16,32,28.20
2013,07,16,16,33,28.20
2013,07,16,16,34,28.20
2013,07,16,16,35,28.20
2013,07,16,16,36,28.20
2013,07,16,16,37,28.20
2013,07,16,16,38,28.20
2013,07,16,16,39,28.10
2013,07,16,16,40,28.10
2013,07,16,16,41,28.10
2013,07,16,16,42,28.10
2013,07,16,16,43,28.10
2013,07,16,16,44,28.10
2013,07,16,16,45,28.10
2013,07,16,16,46,28.10
2013,07,16,16,47,28.10
2013,07,16,16,48,28.10
2013,07,16,16,49,28.10
2013,07,16,16,50,28.10
2013,07,16,16,51,28.10
2013,07,16,16,52,28.10
2013,07,16,16,53,28.10
2013,07,16,16,54,28.00
2013,07,16,16,55,28.00
2013,07,16,16,56,28.00
2013,07,16,16,57,28.00
2013,07,16,16,58,27.90
2013,07,16,16,59,27.90
2013,07,16,17,00,27.90
2013,07,16,17,01,27.90
2013,07,16,17,02,27.90
2013,07,16,17,03,27.80
2013,07,16,17,04,27.80
2013,07,16,17,05,27.80
2013,07,16,17,06,27.70
2013,07,16,17,07,27.70
2013,07,16,17,08,27.70
2013,07,16,17,09,27.70
2013,07,16,17,10,27.60
2013,07,16,17,11,27.60
2013,07,16,17,12,27.60
2013,07,16,17,13,27.60
2013,07,16,17,14,27.60
2013,07,16,17,15,27.40
2013,07,16,17,16,27.40
2013,07,16,17,17,27.40
2013,07,16,17,18,27.40
2013,07,16,17,19,27.40